Rhodes, Greece

11:05 AM EET on February 10, 2016 (GMT +0200)
Diagoras

Weather History for LGRP - November, 2012

Change the Weather History Date:

Wednesday, November 21, 2012

  Actual Average Record
Temperature  
Mean Temperature 64 °F -  
Max Temperature 69 °F 64 °F - (-1)
Min Temperature 59 °F 52 °F - (-1)
Degree Days  
Heating Degree Days 1    
Growing Degree Days 14 (Base 50)    
Moisture  
Dew Point 61 °F    
Average Humidity 92    
Maximum Humidity 100    
Minimum Humidity 78    
Precipitation  
Precipitation 0.02 in 0.17 in - ()
Sea Level Pressure  
Sea Level Pressure 29.99 in    
Wind  
Wind Speed 3 mph ()    
Max Wind Speed 7 mph    
Max Gust Speed -    
Visibility 6.1 miles    
Events Rain    
Averages and records for this station are not official NWS values.
T = Trace of Precipitation, MM = Missing Value Source: Averaged Metar Reports

Daily Weather History Graph

Daily Weather History Graph

Search for Another Location

Airport or City:

Trip Planner

Search our weather history database for the weather conditions in past years. The results will help you decide how hot, cold, wet, or windy it might be!

Date:

Astronomy

Nov. 21, 2012 Rise Set
Actual Time 6:51 AM EET 4:55 PM EET
Civil Twilight 6:23 AM EET 5:23 PM EET
Nautical Twilight 5:52 AM EET 5:54 PM EET
Astronomical Twilight 5:21 AM EET 6:25 PM EET
Moon 12:52 PM EET (11/21) 12:01 AM EET (11/21)
Length of Visible Light 11h 00m
Length of Day
10h 04m
First Quarter, 58% of the Moon is Illuminated
Nov 21
First Quarter
Nov 28
Full
Dec 6
Last Quarter
Dec 13
New
Dec 20
First Quarter

Hourly Weather History & Observations

Time (EET) Temp. Dew Point Humidity Pressure Visibility Wind Dir Wind Speed Gust Speed Precip Events Conditions
12:20 AM 62.6 °F 60.8 °F 94% 30.01 in 5.6 mi SW 4.6 mph - N/A Rain Light Rain
12:50 AM 62.6 °F 60.8 °F 94% 30.04 in 5.6 mi SSW 3.5 mph - N/A Rain Light Rain
1:20 AM 62.6 °F 60.8 °F 94% 30.04 in 5.6 mi SSW 5.8 mph - N/A Rain Light Rain
1:50 AM 62.6 °F 60.8 °F 94% 30.04 in 6.2 mi Variable 2.3 mph - N/A   Overcast
2:00 AM 63 °F 61 °F 90% 30.04 in 6 mi 2.3 mph - - Rain Light Rain
2:20 AM 62.6 °F 60.8 °F 94% 30.04 in 6.2 mi Calm Calm - N/A Rain Light Rain
2:50 AM 62.6 °F 60.8 °F 94% 30.04 in 6.2 mi South 4.6 mph - N/A Rain Light Rain
3:50 AM 62.6 °F 60.8 °F 94% 30.01 in 6.2 mi Calm Calm - N/A   Overcast
4:50 AM 62.6 °F 60.8 °F 94% 30.01 in 6.2 mi Variable 2.3 mph - N/A   Mostly Cloudy
5:20 AM 62.6 °F 60.8 °F 94% 29.98 in 6.2 mi Variable 2.3 mph - N/A   Mostly Cloudy
5:50 AM 62.6 °F 60.8 °F 94% 29.98 in 6.2 mi Variable 2.3 mph - N/A   Mostly Cloudy
6:20 AM 60.8 °F 59.0 °F 94% 29.98 in 6.2 mi Variable 2.3 mph - N/A   Mostly Cloudy
6:50 AM 60.8 °F 59.0 °F 94% 30.01 in 6.2 mi Variable 2.3 mph - N/A   Mostly Cloudy
7:20 AM 60.8 °F 59.0 °F 94% 30.01 in 6.2 mi Variable 2.3 mph - N/A   Scattered Clouds
7:50 AM 60.8 °F 57.2 °F 88% 30.01 in 6.2 mi Calm Calm - N/A   Mostly Cloudy
8:00 AM 62 °F 58 °F 81% 30.02 in 6 mi Calm Calm - -   Mostly Cloudy
8:20 AM 60.8 °F 57.2 °F 88% 30.01 in 6.2 mi Calm Calm - N/A   Mostly Cloudy
8:50 AM 66.2 °F 64.4 °F 94% 30.01 in 6.2 mi Calm Calm - N/A   Scattered Clouds
9:20 AM 66.2 °F 64.4 °F 94% 30.01 in 6.2 mi Calm Calm - N/A   Scattered Clouds
9:50 AM 69.8 °F 64.4 °F 83% 30.01 in 6.2 mi Calm Calm - N/A   Scattered Clouds
10:20 AM 69.8 °F 64.4 °F 83% 30.01 in 6.2 mi Calm Calm - N/A   Scattered Clouds
10:50 AM 69.8 °F 62.6 °F 78% 30.01 in 6.2 mi ENE 6.9 mph - N/A   Scattered Clouds
11:20 AM 69.8 °F 62.6 °F 78% 30.01 in 6.2 mi ENE 6.9 mph - N/A   Scattered Clouds
11:50 AM 69.8 °F 66.2 °F 88% 29.98 in 6.2 mi East 5.8 mph - N/A   Scattered Clouds
12:20 PM 69.8 °F 66.2 °F 88% 29.98 in 6.2 mi East 5.8 mph - N/A   Scattered Clouds
12:50 PM 69.8 °F 66.2 °F 88% 29.98 in 6.2 mi East 5.8 mph - N/A   Mostly Cloudy
1:20 PM 69.8 °F 66.2 °F 88% 29.98 in 6.2 mi East 5.8 mph - N/A   Mostly Cloudy
1:50 PM 68.0 °F 66.2 °F 94% 29.95 in 6.2 mi ESE 4.6 mph - N/A   Mostly Cloudy
2:00 PM 68 °F 66 °F 91% 29.97 in 6 mi ESE 4.6 mph - -   Mostly Cloudy
2:20 PM 68.0 °F 66.2 °F 94% 29.95 in 6.2 mi SE 3.5 mph - N/A   Light Drizzle
2:50 PM 66.2 °F 64.4 °F 94% 29.95 in 6.2 mi South 2.3 mph - N/A Rain Light Rain
3:20 PM 66.2 °F 64.4 °F 94% 29.95 in 6.2 mi WSW 2.3 mph - N/A Rain Light Rain
3:50 PM 64.4 °F 62.6 °F 94% 29.95 in 6.2 mi SW 2.3 mph - N/A Rain Light Rain
4:20 PM 64.4 °F 62.6 °F 94% 29.95 in 6.2 mi SSW 3.5 mph - N/A   Mostly Cloudy
4:50 PM 62.6 °F 62.6 °F 100% 29.95 in 6.2 mi Variable 2.3 mph - N/A   Mostly Cloudy
5:20 PM 62.6 °F 62.6 °F 100% 29.95 in 6.2 mi Variable 3.5 mph - N/A   Mostly Cloudy
5:50 PM 62.6 °F 62.6 °F 100% 29.95 in 6.2 mi SE 2.3 mph - N/A   Mostly Cloudy
6:20 PM 62.6 °F 62.6 °F 100% 29.95 in 6.2 mi ENE 5.8 mph - N/A   Mostly Cloudy
6:50 PM 60.8 °F 60.8 °F 100% 29.95 in 6.2 mi East 2.3 mph - N/A   Mostly Cloudy
7:20 PM 60.8 °F 60.8 °F 100% 29.95 in 6.2 mi SE 2.3 mph - N/A   Mostly Cloudy
7:50 PM 60.8 °F 59.0 °F 94% 29.98 in 6.2 mi SW 5.8 mph - N/A   Mostly Cloudy
8:00 PM 60 °F 59 °F 96% 29.99 in 6 mi SW 5.8 mph - -   Partly Cloudy
8:20 PM 60.8 °F 59.0 °F 94% 29.98 in 6.2 mi WSW 6.9 mph - N/A   Mostly Cloudy
8:50 PM 60.8 °F 59.0 °F 94% 29.98 in 6.2 mi SW 3.5 mph - N/A   Mostly Cloudy
9:20 PM 59.0 °F 59.0 °F 100% 29.98 in 6.2 mi WSW 4.6 mph - N/A   Mostly Cloudy
9:50 PM 59.0 °F 55.4 °F 88% 29.98 in 6.2 mi Calm Calm - N/A   Mostly Cloudy
10:20 PM 59.0 °F 55.4 °F 88% 29.98 in 6.2 mi Calm Calm - N/A   Mostly Cloudy
10:50 PM 59.0 °F 55.4 °F 88% 29.95 in 6.2 mi Calm Calm - N/A   Mostly Cloudy
11:20 PM 59.0 °F 55.4 °F 88% 29.95 in 6.2 mi Calm Calm - N/A   Mostly Cloudy
11:50 PM 59.0 °F 59.0 °F 100% 29.95 in 6.2 mi Calm Calm - N/A   Mostly Cloudy